Regional Weather Roundup
Issued by NWS

Home | Current Version | Previous Version | Graphics & Text | Print | Product List | Glossary On
Versions: 1 2 3 4 5 6 7 8 9 10 11 12 13 14 15 16 17 18 19 20 21 22 23 24 25 26 27 28 29 30 31 32 33 34 35 36 37 38 39 40 41 42 43 44 45 46 47 48 49 50
525
ASUS45 KABQ 251510
RWRNM
NEW MEXICO REGIONAL WEATHER ROUNDUP
NATIONAL WEATHER SERVICE ALBUQUERQUE NM
900 AM MDT TUE JUL 25 2017

NOTE: "FAIR" MEANS FEW OR NO CLOUDS BELOW 12,000 FEET AGL WITH NO
       SIGNIFICANT WEATHER OR OBSTRUCTIONS TO VISION.

      THIS PRODUCT IS RELEASED AS TWO VERSIONS.  ONE VERSION NEAR
      THE TOP OF THE HOUR CONTAINING PRELIMINARY DATA FROM ALBUQUERQUE
      AND OTHER STATIONS.  A FINAL VERSION WITH ADDITIONAL DATA IS
      ISSUED ABOUT 10 MINUTES AFTER THE HOUR.

NMZ501-503-504-510>518-251600-
NORTHWEST PLATEAU/NORTHCENTRAL MOUNTAINS

CITY           SKY/WX    TMP DP  RH WIND       PRES   REMARKS
FARMINGTON     FAIR      69  62  78 E5        30.22R
LOS ALAMOS     FAIR      67  55  66 E5        30.36S
SANTA FE       FAIR      72  60  66 CALM      30.29S
TAOS           FAIR      64  52  63 CALM        N/A
ANGEL FIRE     FAIR      65  54  68 CALM      30.43F

$$
NMZ402-403-502-505>509-251600-
WESTCENTRAL MOUNTAINS/SOUTHWEST MOUNTAINS

CITY           SKY/WX    TMP DP  RH WIND       PRES   REMARKS
GALLUP         CLOUDY    65  60  84 SW7       30.31R
GRANTS         FAIR      67  59  73 CALM      30.34R
SILVER CITY    FAIR      72  60  66 W3        30.26R

$$
NMZ407-409-411-412-251600-
SOUTHERN DESERTS

CITY           SKY/WX    TMP DP  RH WIND       PRES   REMARKS
DEMING         FAIR      75  67  76 SW3       30.19S
LAS CRUCES     FAIR      74  63  67 CALM      30.22R
HOLLOMAN AFB   FAIR      81  63  55 SE7       30.19R
ALAMOGORDO     FAIR      77  63  61 SE5       30.19S
T OR C         FAIR      75  60  59 CALM      30.21R

$$
NMZ519>523-251600-
CENTRAL VALLEYS/CENTRAL HIGHLANDS

CITY           SKY/WX    TMP DP  RH WIND       PRES   REMARKS
ALBUQUERQUE    PTSUNNY   75  61  61 S9        30.24S
DOUBLE EAGLE   PTSUNNY   75  55  50 VRB7      30.27S
MORIARTY ARPT  FAIR      73  59  62 CALM      30.30F
CLINES CORNERS FAIR      71  56  58 W14       30.34S
BELEN          FAIR      74  58  58 SW5       30.22F
SOCORRO        FAIR      74  64  69 S8        30.22R

$$
NMZ524>526-539-540-251600-
SOUTHCENTRAL MOUNTAINS

CITY           SKY/WX    TMP DP  RH WIND       PRES   REMARKS
RUIDOSO        FAIR      70  57  64 NE3       30.36S

$$
NMZ527>531-251600-
NORTHEAST HIGHLANDS/NORTHEAST PLAINS

CITY           SKY/WX    TMP DP  RH WIND       PRES   REMARKS
LAS VEGAS      FAIR      72  58  61 SW10      30.31
RATON          FAIR      70  57  63 CALM      30.25S
CLAYTON        FAIR      81  61  50 SW16      30.16S

$$
NMZ532>537-251600-
EASTCENTRAL PLAINS

CITY           SKY/WX    TMP DP  RH WIND       PRES   REMARKS
SANTA ROSA     FAIR      79  59  49 SW7       30.18S
TUCUMCARI      PTSUNNY   80  62  54 SW13      30.11S
CANNON AFB     FAIR      80  63  55 SW9       30.18S
CLOVIS AIRPORT PTSUNNY   78  62  57 S12       30.18R

$$
NMZ028-029-538-251600-
SOUTHEAST PLAINS

CITY           SKY/WX    TMP DP  RH WIND       PRES   REMARKS
ROSWELL        FAIR      83  61  47 S16       30.12R
ARTESIA        FAIR      82  64  54 S14       30.12S
CARLSBAD       FAIR      80  67  64 S8        30.10S
HOBBS          SUNNY     81  59  47 S12       30.15S


$$




USA.gov is the U.S. government's official web portal to all federal, state and local government web resources and services.